Regional Weather Roundup
Issued by NWS

Home | Current Version | Previous Version | Text Only | Print | Product List | Glossary On
Versions: 1 2 3 4 5 6 7 8 9 10 11 12 13 14 15 16 17 18 19 20 21 22 23 24 25 26 27 28
000
ASUS42 KFFC 300203
RWRGA
WEATHER ROUNDUP FOR GEORGIA
NATIONAL WEATHER SERVICE PEACHTREE CITY GA
1000 PM EDT FRI APR 29 2016

NOTE: "FAIR" INDICATES FEW OR NO CLOUDS BELOW 12,000 FEET WITH NO
SIGNIFICANT WEATHER AND/OR OBSTRUCTIONS TO VISIBILITY.

* = USE WITH CAUTION. THE STATIONS MARKED WITH AN ASTERISK MAY NOT
REPORT WEATHER SUCH AS PRECIPITATION, FOG, OR THUNDER AND ARE NOT
QUALITY CONTROLLED BY NWS.

THE REMARK "TC" DENOTES TEMPERATURE READING IN DEGREES CELSIUS.

GAZ001>058-300300-
NORTH GEORGIA

CITY           SKY/WX    TMP DP  RH WIND       PRES   REMARKS
ATLANTA        CLOUDY    79  51  37 NW5       29.99R
ATHENS         PTCLDY    71  61  70 CALM      29.97S
CHAMBLEE       CLOUDY    74  53  48 CALM      30.00R
PEACHTREE CITY CLOUDY    67  63  87 CALM      29.99R
ROME           MOCLDY    70  60  70 CALM      29.99R
WEST ATLANTA   CLOUDY    68  60  75 CALM      29.99R
GAINESVILLE    CLOUDY    74  53  48 NW6       30.02R
CARTERSVILLE   MOCLDY    69  56  62 CALM      30.00R


CITY           SKY/WX    TMP DP  RH WIND       PRES   REMARKS
DALTON*        CLOUDY    68  61  77 CALM      29.99S
MARIETTA       CLOUDY    73  53  50 CALM      30.00R
KENNESAW*      PTCLDY    75  50  41 CALM      29.97R
CANTON*        MOCLDY    72  45  37 CALM      30.01R
BLAIRSVILLE*     N/A    N/A N/A N/A MISG      30.04S
$$

GAZ059>098-102>109-300300-
CENTRAL GEORGIA

CITY           SKY/WX    TMP DP  RH WIND       PRES   REMARKS
AUGUSTA-BUSH   CLOUDY    68  64  87 S5        29.95R
AUGUSTA-DANIEL PTCLDY    82  55  39 CALM      29.97R
COLUMBUS       CLOUDY    77  64  64 CALM      29.96R
MACON          CLOUDY    69  66  90 CALM      29.95R
ROBINS AFB     CLOUDY    70  67  90 CALM      29.95R


CITY           SKY/WX    TMP DP  RH WIND       PRES   REMARKS
LAGRANGE*      CLOUDY    71  71 100 CALM      29.98R
SYLVANIA*      CLEAR     76  65  68 CALM      29.99R
MILLEDGEVILLE* CLOUDY    70  63  78 CALM      29.97R
$$

GAZ099>101-110>166-300300-
SOUTH GEORGIA

CITY           SKY/WX    TMP DP  RH WIND       PRES   REMARKS
SAVANNAH       PTCLDY    75  60  59 E5        29.98R
VALDOSTA       PTCLDY    76  70  82 CALM      29.96R
ALMA           CLEAR     69  66  90 CALM      29.95R
ST SIMONS      CLEAR     74  73  97 S5        29.97R
FT STEWART     CLEAR     74  63  68 CALM      29.95R
ALBANY         CLEAR     76  67  73 S3        29.96R
HUNTER AFB     CLEAR     73  68  86 E6        29.96R
MOODY AFB      PTCLDY    76  67  73 E7        29.95R
BRUNSWICK      CLEAR     81  73  78 SE3       29.98R


CITY           SKY/WX    TMP DP  RH WIND       PRES   REMARKS
BAINBRIDGE*    PTCLDY    79  70  73 S6        29.95S
MOULTRIE*      CLEAR     77  68  73 CALM      29.96R
VIDALIA*       CLEAR     73  61  64 CALM      29.97R
WAYCROSS*      CLEAR     72  68  87 SE8       29.96R
DOUGLAS*       CLEAR     79  63  57 E3        29.98R
$$




USA.gov is the U.S. government's official web portal to all federal, state and local government web resources and services.